When you browse on this site, cookies collect data to enhance your experience and personalize the content and advertising you see.
Visit our Privacy Policy to learn more. By continuing to use the site, you agree to this use of cookies and data.
  • In Germany
  • List of Countries
  • For 7 days
  • Water Temperature
  • Satellite Maps
  • Weather Map
  • Weather Widgets
  • user-avatar
    Login

    Hourly Weather Nizhniy Mangirtuy

    Today, 22 February, Friday

    Time Temperature Precipitation Wind Pressure Humidity
    00:00 -11°C° 0 mm 1 mps 709 mmHg 76%
    01:00 -13°C° 0 mm 2 mps 709 mmHg 77%
    02:00 -13°C° 0 mm 2 mps 709 mmHg 77%
    03:00 -14°C° 0 mm 2 mps 709 mmHg 78%
    04:00 -14°C° 0 mm 2 mps 709 mmHg 78%
    05:00 -14°C° 0 mm 2 mps 709 mmHg 79%
    06:00 -14°C° 0 mm 2 mps 709 mmHg 79%
    07:00 -14°C° 0 mm 2 mps 709 mmHg 77%
    08:00 -10°C° 0 mm 2 mps 709 mmHg 71%
    09:00 -8°C° 0 mm 2 mps 709 mmHg 65%
    10:00 -6°C° 0 mm 2 mps 709 mmHg 59%
    11:00 -4°C° 0 mm 2 mps 709 mmHg 57%
    12:00 -3°C° 0 mm 2 mps 709 mmHg 55%
    13:00 -2°C° 0 mm 2 mps 708 mmHg 52%
    14:00 -3°C° 0 mm 2 mps 708 mmHg 56%
    15:00 -1°C° 0 mm 1 mps 708 mmHg 59%
    16:00 -2°C° 0 mm 1 mps 708 mmHg 62%
    17:00 -3°C° 0 mm 1 mps 708 mmHg 63%
    18:00 -5°C° 0 mm 0 mps 709 mmHg 65%
    19:00 -7°C° 0 mm 0 mps 709 mmHg 67%
    20:00 -7°C° 0 mm 0 mps 710 mmHg 70%
    21:00 -7°C° 0 mm 0 mps 710 mmHg 73%
    22:00 -7°C° 0 mm 1 mps 711 mmHg 75%
    23:00 -7°C° 0.1 mm 1 mps 711 mmHg 80%

    Tomorrow, 23 February, Saturday

    Time Temperature Precipitation Wind Pressure Humidity
    00:00 -7°C° 0.1 mm 1 mps 711 mmHg 85%
    01:00 -7°C° 0.1 mm 1 mps 712 mmHg 90%
    02:00 -7°C° 0.1 mm 1 mps 712 mmHg 91%
    03:00 -8°C° 0.1 mm 1 mps 712 mmHg 92%
    04:00 -9°C° 0.1 mm 1 mps 712 mmHg 92%
    05:00 -9°C° 0 mm 1 mps 712 mmHg 91%
    06:00 -10°C° 0 mm 1 mps 712 mmHg 90%
    07:00 -11°C° 0 mm 1 mps 712 mmHg 89%
    08:00 -10°C° 0 mm 1 mps 712 mmHg 81%
    09:00 -8°C° 0 mm 1 mps 713 mmHg 73%
    10:00 -6°C° 0 mm 1 mps 713 mmHg 65%
    11:00 -4°C° 0 mm 1 mps 713 mmHg 62%
    12:00 -3°C° 0 mm 1 mps 712 mmHg 59%
    13:00 -4°C° 0 mm 2 mps 712 mmHg 56%
    14:00 -3°C° 0 mm 1 mps 711 mmHg 58%
    15:00 -3°C° 0 mm 1 mps 711 mmHg 61%
    16:00 -3°C° 0 mm 1 mps 711 mmHg 64%
    17:00 -6°C° 0 mm 1 mps 711 mmHg 68%
    18:00 -8°C° 0 mm 1 mps 711 mmHg 73%
    19:00 -9°C° 0 mm 1 mps 712 mmHg 78%
    20:00 -10°C° 0 mm 1 mps 712 mmHg 79%
    21:00 -10°C° 0 mm 1 mps 712 mmHg 81%
    22:00 -11°C° 0 mm 1 mps 712 mmHg 82%
    23:00 -11°C° 0 mm 1 mps 712 mmHg 83%

    Day after tomorrow, 24 February, Sunday

    Time Temperature Precipitation Wind Pressure Humidity
    00:00 -11°C° 0 mm 1 mps 712 mmHg 84%
    01:00 -11°C° 0 mm 1 mps 712 mmHg 85%
    02:00 -12°C° 0 mm 1 mps 712 mmHg 86%
    03:00 -12°C° 0 mm 1 mps 712 mmHg 87%
    04:00 -14°C° 0 mm 2 mps 712 mmHg 88%
    05:00 -15°C° 0 mm 2 mps 712 mmHg 88%
    06:00 -15°C° 0 mm 2 mps 712 mmHg 88%
    07:00 -15°C° 0 mm 2 mps 712 mmHg 88%
    08:00 -13°C° 0 mm 2 mps 712 mmHg 83%
    09:00 -10°C° 0 mm 2 mps 712 mmHg 78%
    10:00 -8°C° 0 mm 2 mps 712 mmHg 73%
    11:00 -7°C° 0 mm 2 mps 711 mmHg 72%
    12:00 -6°C° 0 mm 3 mps 711 mmHg 70%
    13:00 -5°C° 0 mm 3 mps 710 mmHg 68%
    14:00 -5°C° 0 mm 3 mps 710 mmHg 69%
    15:00 -4°C° 0 mm 2 mps 710 mmHg 71%
    16:00 -4°C° 0 mm 2 mps 709 mmHg 72%
    17:00 -6°C° 0 mm 2 mps 709 mmHg 77%
    18:00 -8°C° 0 mm 2 mps 709 mmHg 81%
    19:00 -9°C° 0 mm 2 mps 710 mmHg 86%
    20:00 -10°C° 0 mm 2 mps 709 mmHg 86%
    21:00 -10°C° 0 mm 2 mps 709 mmHg 86%
    22:00 -12°C° 0 mm 2 mps 709 mmHg 86%
    23:00 -12°C° 0 mm 2 mps 709 mmHg 86%

    25 February, Monday

    Time Temperature Precipitation Wind Pressure Humidity
    00:00 -12°C° 0 mm 2 mps 709 mmHg 86%
    01:00 -13°C° 0 mm 2 mps 709 mmHg 85%
    02:00 -13°C° 0 mm 2 mps 708 mmHg 85%
    03:00 -13°C° 0 mm 2 mps 708 mmHg 85%
    04:00 -13°C° 0 mm 2 mps 708 mmHg 85%
    05:00 -14°C° 0 mm 2 mps 708 mmHg 84%
    06:00 -14°C° 0 mm 2 mps 707 mmHg 84%
    07:00 -14°C° 0 mm 2 mps 707 mmHg 83%
    08:00 -12°C° 0 mm 2 mps 707 mmHg 76%
    09:00 -9°C° 0 mm 3 mps 707 mmHg 69%
    10:00 -7°C° 0 mm 3 mps 706 mmHg 62%
    11:00 -7°C° 0 mm 4 mps 706 mmHg 61%
    12:00 -4°C° 0 mm 4 mps 705 mmHg 59%
    13:00 -3°C° 0 mm 4 mps 705 mmHg 57%
    14:00 -3°C° 0 mm 4 mps 704 mmHg 59%
    15:00 -2°C° 0 mm 3 mps 704 mmHg 60%
    16:00 -4°C° 0 mm 3 mps 704 mmHg 61%
    17:00 -6°C° 0 mm 3 mps 704 mmHg 67%
    18:00 -7°C° 0 mm 2 mps 704 mmHg 73%
    19:00 -9°C° 0 mm 2 mps 704 mmHg 79%
    20:00 -9°C° 0 mm 2 mps 705 mmHg 79%
    21:00 -10°C° 0 mm 2 mps 705 mmHg 80%
    22:00 -9°C° 0 mm 1 mps 705 mmHg 80%
    23:00 -10°C° 0 mm 1 mps 705 mmHg 81%

    26 February, Tuesday

    Time Temperature Precipitation Wind Pressure Humidity
    00:00 -10°C° 0 mm 1 mps 705 mmHg 82%
    01:00 -10°C° 0 mm 1 mps 705 mmHg 83%
    02:00 -11°C° 0 mm 1 mps 705 mmHg 83%
    03:00 -11°C° 0 mm 1 mps 705 mmHg 84%
    04:00 -12°C° 0 mm 1 mps 705 mmHg 84%
    05:00 -12°C° 0 mm 1 mps 705 mmHg 85%
    06:00 -12°C° 0 mm 1 mps 705 mmHg 85%
    07:00 -12°C° 0 mm 1 mps 706 mmHg 85%
    08:00 -10°C° 0 mm 1 mps 706 mmHg 79%
    09:00 -8°C° 0 mm 1 mps 706 mmHg 73%
    10:00 -6°C° 0 mm 1 mps 706 mmHg 66%
    11:00 -4°C° 0 mm 1 mps 706 mmHg 64%
    12:00 -3°C° 0 mm 1 mps 706 mmHg 61%
    13:00 -1°C° 0 mm 1 mps 705 mmHg 59%
    14:00 -2°C° 0 mm 1 mps 705 mmHg 61%
    15:00 -2°C° 0 mm 1 mps 705 mmHg 63%
    16:00 -3°C° 0 mm 0 mps 705 mmHg 65%
    17:00 -5°C° 0 mm 0 mps 705 mmHg 70%
    18:00 -7°C° 0 mm 0 mps 705 mmHg 75%
    19:00 -9°C° 0 mm 0 mps 706 mmHg 80%
    20:00 -9°C° 0 mm 0 mps 706 mmHg 81%
    21:00 -9°C° 0 mm 0 mps 706 mmHg 82%
    22:00 -10°C° 0 mm 1 mps 706 mmHg 83%
    23:00 -10°C° 0 mm 1 mps 706 mmHg 84%

    27 February, Wednesday

    Time Temperature Precipitation Wind Pressure Humidity
    00:00 -10°C° 0 mm 1 mps 706 mmHg 85%
    01:00 -11°C° 0 mm 1 mps 706 mmHg 86%
    02:00 -11°C° 0 mm 1 mps 706 mmHg 86%
    03:00 -11°C° 0 mm 1 mps 706 mmHg 86%
    04:00 -12°C° 0 mm 1 mps 706 mmHg 87%
    05:00 -12°C° 0 mm 1 mps 706 mmHg 87%
    06:00 -12°C° 0 mm 1 mps 706 mmHg 87%
    07:00 -12°C° 0 mm 1 mps 706 mmHg 87%
    08:00 -10°C° 0 mm 1 mps 706 mmHg 81%
    09:00 -8°C° 0 mm 1 mps 707 mmHg 74%
    10:00 -6°C° 0 mm 1 mps 707 mmHg 68%
    11:00 -4°C° 0 mm 1 mps 706 mmHg 65%
    12:00 -3°C° 0 mm 1 mps 706 mmHg 63%
    13:00 -2°C° 0 mm 1 mps 706 mmHg 61%
    14:00 -2°C° 0 mm 1 mps 706 mmHg 62%
    15:00 -2°C° 0 mm 1 mps 706 mmHg 64%
    16:00 -2°C° 0 mm 1 mps 705 mmHg 66%
    17:00 -5°C° 0 mm 0 mps 706 mmHg 70%
    18:00 -6°C° 0 mm 0 mps 706 mmHg 75%
    19:00 -8°C° 0 mm 0 mps 706 mmHg 80%
    20:00 -9°C° 0 mm 0 mps 706 mmHg 81%
    21:00 -9°C° 0 mm 1 mps 706 mmHg 82%
    22:00 -9°C° 0 mm 1 mps 706 mmHg 84%
    23:00 -10°C° 0 mm 1 mps 706 mmHg 84%
    Show more